This is the latest recevied weather packets stored in our database for station/object KC0RPY. If no packets are shown the sender has not sent any weather packets the latest 1 day(s).
| Time | Temp. | Humidity | Pressure | Rain* | Wind** | Luminosity | Snow |
|---|---|---|---|---|---|---|---|
| 1778059681 | 7.78° C | 92% | 1016.3 hPa | 0 mm | - | 0 W/m² | - |
| 1778059075 | 7.78° C | 90% | 1016.3 hPa | 0 mm | - | 0 W/m² | - |
| 1778058773 | 7.78° C | 89% | 1016.3 hPa | 0 mm | - | 0 W/m² | - |
| 1778057864 | 7.78° C | 89% | 1016.3 hPa | 0 mm | - | 0 W/m² | - |
| 1778057257 | 7.78° C | 89% | 1016.3 hPa | 0 mm | - | 0 W/m² | - |
| 1778055741 | 7.78° C | 87% | 1016.3 hPa | 0 mm | - | 0 W/m² | - |
| 1778055439 | 7.78° C | 88% | 1016.7 hPa | 0 mm | - | 0 W/m² | - |
| 1778055136 | 7.78° C | 88% | 1016.3 hPa | 0 mm | - | 0 W/m² | - |
| 1778054834 | 7.78° C | 86% | 1016.3 hPa | 0 mm | - | 0 W/m² | - |
| 1778054530 | 7.78° C | 86% | 1016 hPa | 0 mm | - | 0 W/m² | - |
| 1778053924 | 7.78° C | 87% | 1016 hPa | 0 mm | - | 0 W/m² | - |
| 1778053017 | 7.78° C | 85% | 1015.3 hPa | 0 mm | - | 0 W/m² | - |
| 1778052714 | 7.78° C | 85% | 1015.3 hPa | 0 mm | - | 0 W/m² | - |
| 1778051806 | 7.78° C | 84% | 1015.3 hPa | 0 mm | - | 0 W/m² | - |
| 1778049989 | 7.22° C | 88% | 1016 hPa | 0 mm | - | 0 W/m² | - |
| 1778049684 | 7.22° C | 87% | 1016.3 hPa | 0 mm | - | 0 W/m² | - |
| 1778048778 | 7.78° C | 84% | 1016.3 hPa | 0 mm | - | 0 W/m² | - |
| 1778047868 | 8.33° C | 80% | 1016.3 hPa | 0 mm | - | 0 W/m² | - |
| 1778047561 | 8.33° C | 80% | 1016.3 hPa | 0 mm | - | 0 W/m² | - |
| 1778046954 | 8.33° C | 80% | 1016.7 hPa | 0 mm | - | 0 W/m² | - |
| 1778046044 | 8.33° C | 78% | 1016.3 hPa | 0 mm | - | 0 W/m² | - |
| 1778045742 | 8.33° C | 78% | 1016 hPa | 0 mm | - | 0 W/m² | - |
| 1778044836 | 8.89° C | 76% | 1016 hPa | 0 mm | - | 0 W/m² | - |
| 1778044533 | 8.89° C | 75% | 1016 hPa | 0 mm | - | 0 W/m² | - |
| 1778043625 | 9.44° C | 72% | 1016 hPa | 0 mm | - | 0 W/m² | - |
* Rain latest hour (hover to see other rain measurements)
** Current wind speed in m/s (hover to see current wind gust speed)